TimeICT,TemperatureF,Dew PointF,Humidity,Sea Level PressureIn,VisibilityMPH,Wind Direction,Wind SpeedMPH,Gust SpeedMPH,PrecipitationIn,Events,Conditions,WindDirDegrees,DateUTC
12:00 AM,84.2,71.6,66,29.83,5.6,SE,10.4,-,N/A,,Partly Cloudy,140,2013-03-01 17:00:00
12:30 AM,82.4,73.4,74,29.83,5.6,SSE,10.4,-,N/A,,Partly Cloudy,160,2013-03-01 17:30:00
1:00 AM,82.4,73.4,74,29.83,5.6,SSE,10.4,-,N/A,,Partly Cloudy,160,2013-03-01 18:00:00
6:00 AM,77.0,71.6,83,29.86,5.6,SSW,4.6,-,N/A,,Partly Cloudy,200,2013-03-01 23:00:00
7:00 AM,77,74,88,29.91,6,SE,4.5,,,,Partly Cloudy,140,2013-03-02 00:00:00
7:00 AM,78.8,71.6,78,29.89,5.6,SSW,6.9,-,N/A,,Partly Cloudy,200,2013-03-02 00:00:00
7:30 AM,80.6,73.4,79,29.89,5.6,SW,8.1,-,N/A,,Partly Cloudy,220,2013-03-02 00:30:00
8:00 AM,82.4,73.4,74,29.89,-9999.0,SSW,9.2,-,N/A,,Clear,200,2013-03-02 01:00:00
8:30 AM,84.2,73.4,70,29.92,-9999.0,South,9.2,-,N/A,,Clear,190,2013-03-02 01:30:00
9:00 AM,86.0,71.6,62,29.92,-9999.0,South,9.2,-,N/A,,Clear,180,2013-03-02 02:00:00
9:30 AM,87.8,69.8,55,29.92,-9999.0,South,10.4,-,N/A,,Clear,170,2013-03-02 02:30:00
10:00 AM,89.6,68.0,49,29.92,6.2,South,13.8,-,N/A,,Partly Cloudy,180,2013-03-02 03:00:00
10:30 AM,89.6,69.8,52,29.92,6.2,SSE,13.8,-,N/A,,Partly Cloudy,160,2013-03-02 03:30:00
11:00 AM,89.6,69.8,52,29.92,6.2,SE,12.7,-,N/A,,Partly Cloudy,140,2013-03-02 04:00:00
11:30 AM,89.6,69.8,52,29.89,6.2,SSE,11.5,-,N/A,,Scattered Clouds,160,2013-03-02 04:30:00
12:00 PM,91.4,68.0,46,29.86,6.2,South,11.5,-,N/A,,Scattered Clouds,180,2013-03-02 05:00:00
12:30 PM,91.4,68.0,46,29.86,6.2,SSE,9.2,-,N/A,,Scattered Clouds,160,2013-03-02 05:30:00
1:00 PM,93.2,68.0,44,29.86,6.2,SSE,9.2,-,N/A,,Scattered Clouds,160,2013-03-02 06:00:00
1:30 PM,93.2,68.0,44,29.83,6.2,SSE,11.5,-,N/A,,Scattered Clouds,150,2013-03-02 06:30:00
2:00 PM,93.2,68.0,44,29.83,6.2,SE,3.5,-,N/A,,Scattered Clouds,130,2013-03-02 07:00:00
2:30 PM,95.0,68.0,41,29.80,6.2,South,9.2,-,N/A,,Scattered Clouds,180,2013-03-02 07:30:00
3:00 PM,95.0,68.0,41,29.77,6.2,SE,9.2,-,N/A,,Scattered Clouds,130,2013-03-02 08:00:00
3:30 PM,95.0,68.0,41,29.77,6.2,SE,9.2,-,N/A,,Scattered Clouds,130,2013-03-02 08:30:00
4:00 PM,95.0,68.0,41,29.77,6.2,SE,4.6,-,N/A,,Scattered Clouds,130,2013-03-02 09:00:00
4:30 PM,95.0,68.0,41,29.77,6.2,SSE,4.6,-,N/A,,Scattered Clouds,160,2013-03-02 09:30:00
5:00 PM,95.0,69.8,44,29.77,6.2,SSW,10.4,-,N/A,,Partly Cloudy,200,2013-03-02 10:00:00
5:30 PM,93.2,69.8,46,29.77,6.2,South,9.2,-,N/A,,Partly Cloudy,170,2013-03-02 10:30:00
6:00 PM,93.2,69.8,46,29.77,6.2,SSE,9.2,-,N/A,,Partly Cloudy,150,2013-03-02 11:00:00
6:30 PM,89.6,69.8,52,29.77,5.6,South,12.7,-,N/A,,Partly Cloudy,190,2013-03-02 11:30:00
7:00 PM,89.6,69.8,52,29.80,5.6,South,10.4,-,N/A,,Partly Cloudy,190,2013-03-02 12:00:00
7:30 PM,89.6,69.8,52,29.80,5.6,South,11.5,-,N/A,,Partly Cloudy,180,2013-03-02 12:30:00
8:00 PM,89.6,71.6,55,29.80,5.6,South,6.9,-,N/A,,Partly Cloudy,170,2013-03-02 13:00:00
8:30 PM,87.8,71.6,58,29.83,5.6,South,10.4,-,N/A,,Partly Cloudy,180,2013-03-02 13:30:00
9:00 PM,87.8,71.6,58,29.83,5.6,South,8.1,-,N/A,,Partly Cloudy,170,2013-03-02 14:00:00
9:30 PM,87.8,71.6,58,29.83,5.6,South,10.4,-,N/A,,Partly Cloudy,170,2013-03-02 14:30:00
10:00 PM,87.8,71.6,58,29.83,5.6,South,13.8,-,N/A,,Partly Cloudy,170,2013-03-02 15:00:00
10:30 PM,87.8,71.6,58,29.83,5.6,South,13.8,-,N/A,,Partly Cloudy,170,2013-03-02 15:30:00
11:00 PM,84.2,71.6,66,29.83,5.6,South,15.0,-,N/A,,Partly Cloudy,170,2013-03-02 16:00:00
11:30 PM,84.2,71.6,66,29.89,5.6,SSE,11.5,-,N/A,,Partly Cloudy,160,2013-03-02 16:30:00